Погода в Новоюгине

Россия / Томская область     58°59′28″N   80°34′07″E
темп.,
°C
ветер,
м/с
пор.,
м/с
влажн.,
%
обл.,
%
осадки,
мм/ч
давл.,
гПа
погр.,
м
19 апреля, пн
пн1901:00−10с61289100 0.2 10141170
04:00−13ссз61186100 0.1 1017808
07:00−15ссз5118599 0.1 1018858
10:00−13сз6976100 0.1 10191092
13:00−10сз6966100 0.1 10211373
16:00−9сз6963100 0.0 10231451
19:00−9сз6107379 0.1 10241189
22:00−11сз5128035 0.0 1025709
20 апреля, вт
вт2001:00−12сз5128795 0.0 1025668
04:00−13зсз4119199 0.0 1025509
07:00−13зсз4109299 0.0 1026496
10:00−9зсз467269 0.0 1025706
13:00−5з4659100 0.0 10231297
16:00−4зюз5769100 0.0 10211272
19:00−4юз4990100 0.3 1019867
22:00−5ю41195100 0.8 1016789
21 апреля, ср
ср2101:00−4ююв4993100 1.4 1015477
04:00−5вюв3796100 0.1 1016289
07:00−6всв389589 0.3 1019350
10:00−4всв478399 0.1 1023638
13:00−1всв4670100 0.1 10261260
16:000св4669100 0.2 10281242
19:000ссв357195 0.4 10311058
22:00−8с11945 0.0 103411
22 апреля, чт
чт2201:00−8с249440 0.0 103661
04:00−10с119617 0.0 103833
07:00−9с12935 0.0 104157
10:00−2с23705 0.0 1042409
13:00+1ссв22561 0.0 1043852
16:00+2с22522 0.0 10431041
19:00+1св22605 0.0 1044471
22:00−5юв11905 0.0 104610
23 апреля, пт
пт2301:00−6ю11905 0.0 104615
04:00−6ю119448 0.0 104632
07:00−5ю149028 0.0 104767
10:00+1ю23685 0.0 1047490
13:00+4ю23545 0.0 10461150
16:00+6ю23505 0.0 10451273
19:00+5юв23635 0.0 1044196
22:00−2юв25935 0.0 104467